This is the latest recevied weather packets stored in our database for station/object KJ5IIV. If no packets are shown the sender has not sent any weather packets the latest 10 day(s).
| Time | Temp. | Humidity | Pressure | Rain* | Wind** | Luminosity | Snow |
|---|---|---|---|---|---|---|---|
| 1778104160 | 15.56° C | 94% | 1012.6 hPa | 0 mm | - | 44 W/m² | - |
| 1778103857 | 15.56° C | 94% | 1012.5 hPa | 0 mm | - | 74 W/m² | - |
| 1778103555 | 15.56° C | 93% | 1012.6 hPa | 0 mm | - | 86 W/m² | - |
| 1778103252 | 15.56° C | 93% | 1012.5 hPa | 0 mm | - | 116 W/m² | - |
| 1778102950 | 15.56° C | 92% | 1012.8 hPa | 0 mm | - | 93 W/m² | - |
| 1778102645 | 15.56° C | 91% | 1012.9 hPa | 0 mm | - | 58 W/m² | - |
| 1778102340 | 16.11° C | 90% | 1013.2 hPa | 0 mm | - | 46 W/m² | - |
| 1778102036 | 16.11° C | 89% | 1013.2 hPa | 0 mm | - | 43 W/m² | - |
| 1778101734 | 16.11° C | 89% | 1013.1 hPa | 0 mm | - | 41 W/m² | - |
| 1778101430 | 16.11° C | 89% | 1012.9 hPa | 0 mm | - | 49 W/m² | - |
| 1778101128 | 16.67° C | 88% | 1012.9 hPa | 0 mm | - | 52 W/m² | - |
| 1778100823 | 16.67° C | 88% | 1012.5 hPa | 0 mm | - | 66 W/m² | - |
| 1778100520 | 16.11° C | 88% | 1012.6 hPa | 0 mm | - | 79 W/m² | - |
| 1778100218 | 16.67° C | 88% | 1012.7 hPa | 0 mm | - | 92 W/m² | - |
| 1778099915 | 16.67° C | 88% | 1012.4 hPa | 0 mm | - | 103 W/m² | - |
| 1778099612 | 16.11° C | 88% | 1012.6 hPa | 0 mm | - | 109 W/m² | - |
| 1778099309 | 16.11° C | 89% | 1012.8 hPa | 0 mm | - | 105 W/m² | - |
| 1778099006 | 16.11° C | 88% | 1012.7 hPa | 0 mm | - | 96 W/m² | - |
| 1778098703 | 16.11° C | 88% | 1012.4 hPa | 0 mm | - | 90 W/m² | - |
| 1778098401 | 16.11° C | 88% | 1012.5 hPa | 0 mm | - | 103 W/m² | - |
| 1778098097 | 16.11° C | 88% | 1012.5 hPa | 0 mm | - | 111 W/m² | - |
| 1778097793 | 16.11° C | 88% | 1012.4 hPa | 0 mm | - | 95 W/m² | - |
| 1778097489 | 16.11° C | 88% | 1012.3 hPa | 0 mm | - | 101 W/m² | - |
| 1778097186 | 16.11° C | 88% | 1012.7 hPa | 0 mm | - | 129 W/m² | - |
| 1778096884 | 16.11° C | 87% | 1012.5 hPa | 0 mm | - | 130 W/m² | - |
* Rain latest hour (hover to see other rain measurements)
** Current wind speed in m/s (hover to see current wind gust speed)